User: anonymous
Location: Caltech
(34.1382°N, 118.1253°W)
Time: 21:13:11
(UTC-07:00)
Language:

Spot 4 Rocket - Orbit

View from above orbital plane
View from above orbital plane
View from above satellite
View from above satellite

Ground track
Ground track

The orbit data is extracted from the following two-line orbital elements,

1 25261U 98017B   14208.47710917  .00000154  00000-0  71779-4 0  6332
2 25261 098.4102 161.1902 0003006 003.8869 103.9383 14.32952806853783
Epoch (UTC): 27 July 2014 11:27:02
Eccentricity: 0.0003006
inclination: 98.4102°
perigee height: 780 km
apogee height: 784 km
right ascension of ascending node: 161.1902°
argument of perigee: 3.8869°
revolutions per day: 14.32952806
mean anomaly at epoch: 103.9383°
orbit number at epoch: 85378

The dashed part of the orbit path shows where the satellite is in the earth's shadow,  

DLR